Location: Hamilton
(37.7830°S, 175.2830°E)
Time: 06:47:00
(UTC+12:00)

Tiangong 2 - Pass Details

Date: 24 January 2019
Orbit: 378 x 389 km, 42.8° (Epoch: 22 April)

Event Time Altitude Azimuth Distance (km) Brightness Sun altitude
Rises 21:06:31 0° 252° (WSW) 2,285 7.1 -5.8°
Reaches altitude 10° 21:08:43 10° 261° (W) 1,422 5.3 -6.1°
Maximum altitude 21:11:40 34° 328° (NNW) 656 2.2 -6.6°
Drops below altitude 10° 21:14:35 10° 36° (NE) 1,403 3.3 -7.1°
Enters shadow 21:14:56 - 38° (NE) 1,533 3.5 -7.2°
